TimeCST,TemperatureF,Dew PointF,Humidity,Sea Level PressureIn,VisibilityMPH,Wind Direction,Wind SpeedMPH,Gust SpeedMPH,PrecipitationIn,Events,Conditions,WindDirDegrees,DateUTC
12:15 AM,22.6,19.4,87,30.10,2.5,Calm,Calm,-,N/A,Snow,Light Snow,0,2013-12-23 06:15:00
12:35 AM,22.5,19.2,87,30.10,1.2,Calm,Calm,-,N/A,Snow,Light Snow,0,2013-12-23 06:35:00
12:55 AM,22.1,19.2,89,30.11,1.2,Calm,Calm,-,N/A,Snow,Light Snow,0,2013-12-23 06:55:00
1:15 AM,22.1,19.2,89,30.11,2.5,Calm,Calm,-,N/A,Snow,Light Snow,0,2013-12-23 07:15:00
1:35 AM,22.1,18.9,87,30.11,10.0,Calm,Calm,-,N/A,Snow,Light Snow,0,2013-12-23 07:35:00
1:55 AM,21.7,18.5,87,30.12,10.0,North,3.5,-,N/A,Snow,Light Snow,350,2013-12-23 07:55:00
2:15 AM,21.7,18.1,86,30.13,4.0,Calm,Calm,-,N/A,Snow,Light Snow,0,2013-12-23 08:15:00
2:35 AM,21.2,18.0,87,30.14,3.0,NNW,3.5,-,N/A,Snow,Light Snow,340,2013-12-23 08:35:00
2:55 AM,21.0,17.6,87,30.15,3.0,NNW,3.5,-,N/A,Snow,Light Snow,340,2013-12-23 08:55:00
3:15 AM,21.2,17.6,86,30.15,5.0,Calm,Calm,-,N/A,Snow,Light Snow,0,2013-12-23 09:15:00
3:35 AM,20.8,17.1,85,30.15,7.0,North,3.5,-,N/A,Snow,Light Snow,360,2013-12-23 09:35:00
3:55 AM,20.3,16.7,86,30.15,10.0,Calm,Calm,-,N/A,Snow,Light Snow,0,2013-12-23 09:55:00
4:15 AM,20.7,16.9,85,30.16,10.0,Calm,Calm,-,N/A,Snow,Light Snow,0,2013-12-23 10:15:00
4:35 AM,20.5,16.7,85,30.16,4.0,Calm,Calm,-,N/A,Snow,Light Snow,0,2013-12-23 10:35:00
4:55 AM,20.1,16.7,87,30.17,4.0,Calm,Calm,-,N/A,Snow,Light Snow,0,2013-12-23 10:55:00
5:15 AM,19.4,16.2,87,30.17,7.0,Calm,Calm,-,N/A,Snow,Light Snow,0,2013-12-23 11:15:00
5:35 AM,19.0,15.8,87,30.18,10.0,Calm,Calm,-,N/A,,Overcast,0,2013-12-23 11:35:00
5:55 AM,18.5,15.6,89,30.18,7.0,Calm,Calm,-,N/A,,Overcast,0,2013-12-23 11:55:00
6:15 AM,18.7,15.6,88,30.20,7.0,Calm,Calm,-,N/A,Snow,Light Snow,0,2013-12-23 12:15:00
6:35 AM,18.5,15.4,88,30.20,5.0,Calm,Calm,-,N/A,Snow,Light Snow,0,2013-12-23 12:35:00
6:55 AM,18.3,15.4,89,30.21,7.0,Calm,Calm,-,N/A,Snow,Light Snow,0,2013-12-23 12:55:00
7:15 AM,17.8,15.4,91,30.21,5.0,Calm,Calm,-,N/A,Snow,Light Snow,0,2013-12-23 13:15:00
7:35 AM,17.2,14.7,90,30.22,5.0,Calm,Calm,-,N/A,Snow,Light Snow,0,2013-12-23 13:35:00
7:55 AM,17.2,14.7,90,30.23,7.0,Calm,Calm,-,N/A,Snow,Light Snow,0,2013-12-23 13:55:00
8:15 AM,16.7,14.0,89,30.23,5.0,Calm,Calm,-,N/A,Snow,Light Snow,0,2013-12-23 14:15:00
8:35 AM,16.7,14.0,89,30.24,10.0,Calm,Calm,-,N/A,Snow,Light Snow,0,2013-12-23 14:35:00
8:55 AM,16.7,14.0,89,30.24,10.0,Calm,Calm,-,N/A,,Overcast,0,2013-12-23 14:55:00
9:15 AM,18.3,15.8,90,30.25,10.0,NNE,3.5,-,N/A,,Overcast,20,2013-12-23 15:15:00
9:35 AM,18.7,16.0,89,30.25,7.0,Calm,Calm,-,N/A,,Overcast,0,2013-12-23 15:35:00
9:55 AM,19.4,15.4,85,30.26,5.0,NNE,3.5,-,N/A,,Overcast,30,2013-12-23 15:55:00
10:15 AM,20.3,15.6,82,30.26,7.0,Calm,Calm,-,N/A,,Overcast,0,2013-12-23 16:15:00
10:35 AM,20.5,15.3,80,30.26,7.0,Calm,Calm,-,N/A,,Mostly Cloudy,0,2013-12-23 16:35:00
10:55 AM,21.2,15.4,78,30.26,10.0,Calm,Calm,-,N/A,,Scattered Clouds,0,2013-12-23 16:55:00
11:15 AM,21.6,14.5,74,30.26,10.0,NNE,5.8,-,N/A,,Overcast,30,2013-12-23 17:15:00
11:35 AM,21.7,14.9,75,30.25,10.0,NE,4.6,-,N/A,,Overcast,40,2013-12-23 17:35:00
11:55 AM,21.6,14.9,76,30.25,4.0,NE,4.6,-,N/A,Snow,Light Snow,40,2013-12-23 17:55:00
12:15 PM,21.7,15.8,78,30.25,3.0,NE,3.5,-,N/A,,Haze,40,2013-12-23 18:15:00
12:35 PM,21.7,16.5,80,30.25,2.5,Calm,Calm,-,N/A,Snow,Light Snow,0,2013-12-23 18:35:00
12:55 PM,22.1,16.7,80,30.25,3.0,East,3.5,-,N/A,,Haze,80,2013-12-23 18:55:00
1:15 PM,21.9,16.5,80,30.25,3.0,NNE,4.6,-,N/A,Snow,Light Snow,30,2013-12-23 19:15:00
1:35 PM,21.6,15.3,77,30.25,4.0,NNE,4.6,-,N/A,,Haze,30,2013-12-23 19:35:00
1:55 PM,21.2,15.6,79,30.25,4.0,NE,3.5,-,N/A,,Haze,40,2013-12-23 19:55:00
2:15 PM,21.6,15.8,78,30.25,7.0,NNE,4.6,-,N/A,,Overcast,30,2013-12-23 20:15:00
2:35 PM,21.2,14.5,75,30.26,7.0,NNE,5.8,-,N/A,,Overcast,30,2013-12-23 20:35:00
2:55 PM,21.0,15.3,78,30.26,5.0,NNE,5.8,-,N/A,,Haze,30,2013-12-23 20:55:00
3:15 PM,20.7,15.8,81,30.27,4.0,NE,3.5,-,N/A,,Overcast,40,2013-12-23 21:15:00
3:35 PM,20.3,15.8,83,30.28,3.0,NE,3.5,-,N/A,Snow,Light Snow,50,2013-12-23 21:35:00
3:55 PM,19.8,14.5,80,30.29,10.0,NNE,4.6,-,N/A,,Mostly Cloudy,30,2013-12-23 21:55:00
4:15 PM,18.5,13.6,81,30.29,10.0,NNE,4.6,-,N/A,,Overcast,30,2013-12-23 22:15:00
4:35 PM,18.0,13.1,81,30.30,10.0,NNE,3.5,-,N/A,,Overcast,30,2013-12-23 22:35:00
4:55 PM,18.3,14.0,83,30.30,2.5,NE,3.5,-,N/A,Snow,Light Snow,40,2013-12-23 22:55:00
5:15 PM,19.0,15.1,85,30.30,4.0,NNE,4.6,-,N/A,,Overcast,20,2013-12-23 23:15:00
5:35 PM,18.7,14.7,85,30.31,5.0,NNE,5.8,-,N/A,Snow,Light Snow,20,2013-12-23 23:35:00
5:55 PM,19.0,14.5,83,30.32,4.0,NNE,6.9,-,N/A,Snow,Light Snow,20,2013-12-23 23:55:00
6:15 PM,18.5,13.8,82,30.33,7.0,North,6.9,-,N/A,,Overcast,10,2013-12-24 00:15:00
6:35 PM,18.3,12.9,79,30.33,10.0,North,8.1,-,N/A,,Overcast,10,2013-12-24 00:35:00
6:55 PM,18.0,12.2,78,30.34,10.0,North,5.8,-,N/A,,Overcast,10,2013-12-24 00:55:00
7:15 PM,17.6,11.7,78,30.34,10.0,North,5.8,-,N/A,,Overcast,360,2013-12-24 01:15:00
7:35 PM,17.2,10.8,76,30.35,10.0,North,6.9,-,N/A,,Overcast,360,2013-12-24 01:35:00
7:55 PM,17.1,10.2,75,30.35,10.0,NNW,5.8,-,N/A,,Overcast,340,2013-12-24 01:55:00
8:15 PM,16.5,9.9,75,30.35,10.0,NNW,6.9,-,N/A,,Mostly Cloudy,340,2013-12-24 02:15:00
8:35 PM,15.4,8.8,75,30.36,10.0,North,6.9,-,N/A,,Scattered Clouds,350,2013-12-24 02:35:00
8:55 PM,14.5,8.2,76,30.36,10.0,NNW,4.6,-,N/A,,Clear,340,2013-12-24 02:55:00
9:15 PM,14.4,8.4,77,30.36,10.0,North,4.6,-,N/A,,Scattered Clouds,360,2013-12-24 03:15:00
9:35 PM,14.5,7.9,75,30.36,10.0,North,6.9,-,N/A,,Mostly Cloudy,350,2013-12-24 03:35:00
9:55 PM,12.7,6.1,75,30.36,10.0,North,5.8,-,N/A,,Mostly Cloudy,350,2013-12-24 03:55:00
10:15 PM,13.1,7.0,77,30.36,10.0,NNW,4.6,-,N/A,,Scattered Clouds,340,2013-12-24 04:15:00
10:35 PM,12.4,6.1,76,30.37,10.0,NNW,4.6,-,N/A,,Clear,340,2013-12-24 04:35:00
10:55 PM,12.0,5.2,74,30.37,10.0,North,4.6,-,N/A,,Clear,350,2013-12-24 04:55:00
11:15 PM,8.4,1.9,75,30.37,10.0,Calm,Calm,-,N/A,,Clear,0,2013-12-24 05:15:00
11:35 PM,6.6,2.5,83,30.38,10.0,Calm,Calm,-,N/A,,Clear,0,2013-12-24 05:35:00
11:55 PM,6.4,1.9,82,30.38,10.0,Calm,Calm,-,N/A,,Clear,0,2013-12-24 05:55:00